Location: Asheville, NC
(35.6000°N, 82.5500°W)
Time: 17:05:29
(UTC-04:00)

M-CUBED/EXP-1 PRIME - Pass Details

Date: 12 March 2018
Orbit: 431 x 675 km, 101.7° (Epoch: 17 June)

Event Time Altitude Azimuth Distance (km) Brightness Sun altitude
Rises 06:57:26 0° 45° (NE) 2,882 ? -10.5°
Reaches altitude 10° 07:01:25 10° 83° (E) 2,028 ? -9.7°
Maximum altitude 07:02:33 11° 98° (E) 1,983 ? -9.5°
Drops below altitude 10° 07:03:41 10° 112° (ESE) 2,051 ? -9.3°
Sets 07:07:47 0° 149° (SSE) 2,992 ? -8.4°
